Flag for Laos Weather past 2 weeks in Vientiane, Laos

84 °F

Thunderstorms. More clouds than sun.

Feels Like: 96 °F
Forecast: 76 / 85 °F
Wind: 12 mph from East

Location: Vientiane Airport

Current Time: Oct 7, 2015 at 12:03:44 PM

Latest Report: Oct 7, 2015 at 11:30 AM

Visibility: 1 mi

Pressure: 29.89 "Hg

Humidity: 84%

Dew point: 79 °F

Location of VientianeLocation

Historic Weather in Vientiane — Graph


Vientiane temperature yesterday

Maximum temperature yesterday: 91 °F (at 3:00 PM)
Minimum temperature yesterday: 77 °F (at 7:00 AM)
Average temperature yesterday: 84 °F

Past Weeks' High & Low Weather Summary

High95 °F (Sep 28, 4:00 PM)100% (Sep 23, 6:30 AM)29.95 "Hg (Sep 23, 6:30 AM)
Low73 °F (Oct 2, 6:00 AM)56% (Sep 25, 5:00 PM)29.59 "Hg (Sep 25, 4:00 PM)
Average84 °F79%29.78 "Hg
* Reported Sep 22 10:00 AM — Oct 7 10:30 AM, Vientiane, Weather by CustomWeather, © 2015

Note: Actual official high and low records may vary slightly from our data, if they occured in-between our weather recording intervals... More about our weather records


Vientiane weather history for previous 24 hours

Time TempWeatherWind HumidityBarometerVisibility
10:30 AM
Wed, Oct 7
84 °FPartly sunny.2 mph79%29.92 "Hg4 mi
10:00 AM84 °FPartly sunny.2 mph79%29.92 "Hg4 mi
9:30 AM81 °FFog.2 mph89%29.92 "Hg3 mi
9:00 AM79 °FFog.2 mph94%29.92 "Hg3 mi
8:30 AM81 °FFog.2 mph89%29.89 "Hg3 mi
8:00 AM79 °FFog.2 mph94%29.89 "Hg3 mi
7:30 AM77 °FFog.5 mph100%29.86 "Hg2 mi
7:00 AM77 °FFog.5 mph100%29.86 "Hg2 mi
6:00 AM77 °FFog.2 mph94%29.83 "Hg2 mi
11:00 PM
Tue, Oct 6
79 °FFog.2 mph89%29.89 "Hg2 mi
10:30 PM79 °FFog.2 mph89%29.89 "Hg2 mi
10:00 PM79 °FFog.2 mph89%29.89 "Hg2 mi
9:30 PM81 °FThunderstorms. Passing clouds.5 mph89%29.86 "Hg2 mi
9:00 PM81 °FThunderstorms. Passing clouds.5 mph89%29.86 "Hg2 mi
8:30 PM82 °FThunderstorms. Passing clouds.7 mph84%29.83 "Hg2 mi
8:00 PM82 °FThunderstorms. Passing clouds.7 mph84%29.83 "Hg2 mi
7:30 PM82 °FThunderstorms. Passing clouds.2 mph89%29.80 "Hg2 mi
7:00 PM82 °FThunderstorms. Passing clouds.2 mph89%29.80 "Hg2 mi
6:30 PM84 °FThunderstorms. Passing clouds.2 mph79%29.77 "Hg3 mi
6:00 PM84 °FThunderstorms. Passing clouds.2 mph79%29.77 "Hg4 mi
5:30 PM90 °FThunderstorms. Scattered clouds.2 mph67%29.74 "Hg5 mi
5:00 PM90 °FThunderstorms. Scattered clouds.2 mph67%29.74 "Hg5 mi
4:30 PM91 °FScattered clouds.5 mph63%29.74 "HgN/A
4:00 PM91 °FScattered clouds.5 mph63%29.74 "HgN/A
3:30 PM91 °FScattered clouds.5 mph59%29.77 "HgN/A
3:00 PM91 °FScattered clouds.5 mph59%29.77 "HgN/A
2:30 PM90 °FScattered clouds.5 mph67%29.80 "HgN/A
2:00 PM90 °FScattered clouds.5 mph67%29.80 "HgN/A
1:30 PM90 °FScattered clouds.5 mph67%29.83 "HgN/A
1:00 PM90 °FScattered clouds.7 mph67%29.83 "HgN/A
12:30 PM88 °FScattered clouds.5 mph70%29.86 "HgN/A
12:00 PM88 °FScattered clouds.5 mph70%29.86 "HgN/A
Weather by CustomWeather, © 2015

See weather overviewHow to use our weather pages